Location: Alpha Ridge Park
(39.3209°N, 76.9128°W)
Time: 18:58:01
(UTC-04:00)

Vanguard 2 Rocket - Pass Details

Date: 24 May 2019
Orbit: 554 x 3326 km, 32.9° (Epoch: 17 June)

Event Time Altitude Azimuth Distance (km) Brightness Sun altitude
Rises 06:30:13 0° 236° (SW) 7,302 10.9 6.7°
Reaches altitude 10° 06:35:29 10° 233° (SW) 6,193 10.6 7.7°
Maximum altitude 06:53:30 54° 163° (SSE) 2,954 9.7 10.9°
Drops below altitude 10° 07:05:02 10° 91° (E) 4,130 12.1 13.1°
Sets 07:07:47 0° 86° (E) 4,811 12.4 13.6°
